STARLINK-4763, 53805

Orbit data source: Space-Track

STARLINK-4763, 53805 is a payload satellite owned by SpaceX/Seattle (US) in LEO that was launched on Sun, 11 Sep 2022 UTC via an FALCON 9 launch vehicle from the Air Force Eastern Test Range (AFETR). Payloads include a variety of satellites, spacecraft, and rockets equipped with specific instruments for various scientific and technological missions. These include communications satellites like Starlink; space stations such as the ISS; scientific satellites like the Hubble; Earth observation satellites from companies like Planet Labs, Umbra, and HawkEye 360; GPS; miniature CubeSats for education and research; and military/defense satellites.

Loading next visibility...
STARLINK-4763 details
Identifier
53805, 2022-111AJ
Orbit
LEO
Last TLE update19 hours ago
Origin
Flag of USSpaceX/Seattle (US)
ManufacturerSpaceX/Seattle
MissionOperational Commercial Communications
Bus & MotorSTARLINK, Unknown motor
Mass305 kg wet, ~290 kg dry
Launch date (UTC)
2022-09-11 (2 years ago)
Launch vehicle
FALCON 9
Launch site
Air Force Eastern Test Range (AFETR)
Object type
Payload
Rocket body
Debris
Shape & HBRBox + 1 Pan, 8.86 m
Radar Cross Section13.562 m², Large (>1 m²)

Expand to show TLE details & history

TLE from 19 hours ago
0 STARLINK-4763
1 53805U 22111AJ  24356.46929767  .00000803  00000-0  68553-4 0  9990
2 53805  53.2179  78.9435 0001745 113.5822 246.5353 15.08838970127114
Epoch: 2024-12-21T11:15Z
Definitive object data (Epoch: 2024-12-21T11:15:47.318Z)
Latitude-0.00008°
Longitude179.47628°
Altitude541.125 km
Speed7.593 km/s
True Right ascension05h 15m 46s
True Declination0° 00' 00"
Sunlit
Object was in full shadow at TLE epoch
Visualization TLE readout
Latitude-12.99287°
Longitude166.04226°
Altitude544.033 km
Speed7.59 km/s
Apparent Right ascension02h 14m 57s
Apparent Declination-67° 11' 60"
Sunlit
Object is in full shadow
Visualization observer readout
Local Sidereal Time05:20:50
Azimuth197.739° SSW
Elevation-22.757°
Doppler factor1
Orbital elements
Apogee altitude541.199 km
Perigee altitude538.784 km
Semi-major axis6,918.128 km
Eccentricity0.0001745
Inclination53.2179°
RAAN78.9435°
Arg. of periapsis113.5822°
True anomaly246.51696°
Mean anomaly246.5353°
Eccentric anomaly246.52613°
Mean motion3.7719 °/min
BSTAR0.000068553
Orbital period95.44 mins
Loading maneuver chart data...
Loading historical data...
Loading historical data...
Loading historical data...
Loading historical data...
Loading historical data...
Loading historical data...
Loading historical data...

STARLINK-4763 Visibility forecast

Observer location: undefined°, undefined

Span
Click to sort rows by Start time (UTC) header in descending order
Start Az.
Max El. time (UTC)
Max El. Az.
Max El.
End time (UTC)
End Az.
6 mins2024-12-22 08:06:07.121Z212.512° SW2024-12-22 08:09:07.121Z134.18° SE40.902°2024-12-22 08:12:07.121Z59.359° ENE
4 mins2024-12-22 09:47:07.121Z298.872° NW2024-12-22 09:49:07.121Z344.926° N22.875°2024-12-22 09:51:07.121Z21.729° NNE
6 mins2024-12-22 14:47:07.121Z321.313° NNW2024-12-22 14:50:07.121Z49.886° ENE39.803°2024-12-22 14:53:07.121Z113.373° SE
4 mins2024-12-22 16:27:07.121Z265.571° W2024-12-22 16:29:07.121Z228.808° WSW18.228°2024-12-22 16:31:07.121Z194.44° SSW
|